Regional Weather Roundup
Issued by NWS Midland/Odessa, TX

Home | Current Version | Previous Version | Text Only | Print | Product List | Glossary On
Versions: 1 2 3 4 5 6 7 8 9 10 11 12 13 14 15 16 17 18 19 20 21 22 23 24 25 26 27 28 29 30 31 32 33 34 35 36 37 38 39 40 41 42 43 44 45 46 47 48 49 50
000
ASUS44 KMAF 231701
RWRMAF
MIDLAND AREA WEATHER ROUNDUP
NATIONAL WEATHER SERVICE MIDLAND TX
1100 AM CST FRI FEB 23 2018

...IN SOUTHWEST TEXAS AND SOUTHEAST NEW MEXICO...

CITY           SKY/WX    TMP DP  RH WIND       PRES   REMARKS
ALPINE         SUNNY     65  19  17 W8        30.17S
ANDREWS        FAIR      47  39  74 W6        30.11F
ARTESIA        SUNNY     45  32  61 SE3       30.08F
BIG SPRING     CLOUDY    41  41  99 S5        30.16S WCI  38
CARLSBAD       SUNNY     52  33  48 S8        30.07F
DRYDEN           N/A     51  45  79 N3        30.11S
FORT STOCKTON  SUNNY     49  36  61 W5        30.12F
GUAD PASS      NOT AVBL
HOBBS          SUNNY     59  28  31 S8        30.09S
LAMESA         FOG       39  39 100 S9        30.13F VSB 1   WCI  33
MARFA          NOT AVBL
MIDLAND AIRPK    N/A     46  46 100 W3        30.13S
MIDLAND INTL   PTSUNNY   49  41  74 VRB3      30.11F
ODESSA         PTSUNNY   47  41  80 SW8       30.12S
PECOS          SUNNY     44  38  79 CALM      30.12F
PRESIDIO       FAIR      59  28  31 CALM      30.14F
SEMINOLE       SUNNY     51  33  51 S5        30.11F
SNYDER         CLOUDY    40  40 100 SE5       30.15S FOG     WCI  37
WINK           CLOUDY   N/A N/A N/A MISG      30.11S
$$
...OTHER STATIONS IN TEXAS...

CITY           SKY/WX    TMP DP  RH WIND       PRES   REMARKS
ABILENE        FOG       38  38 100 NE3       30.16F THUNDER VSB 3/4
AMARILLO       CLOUDY    49  24  37 VRB3      30.11S
AUSTIN         FOG       49  49 100 NE5       30.18S VSB 1/4
BROWNSVILLE    FAIR      82  68  62 SE25G33   30.11F
CORPUS CHRISTI CLOUDY    66  66 100 E8        30.13F FOG
DALLAS FTW     CLOUDY    45  42  89 NW7       30.21R FOG
DEL RIO        CLOUDY    57  52  83 SE6       30.12S
EL PASO        MOSUNNY   51  24  34 S7        30.10S
HOUSTON INT    PTSUNNY   75  69  81 SE6       30.18F
LUBBOCK        CLOUDY    53  34  48 E6        30.09F
SAN ANGELO     CLOUDY    43  41  93 E5        30.14F
SAN ANTONIO    DRZL/FOG  59  59 100 SE8       30.14F VSB 1/16
WACO           CLOUDY    47  45  93 NE5       30.20F
WICHITA FALLS  CLOUDY    33  31  92 NE9       30.26F WCI  25
$$
...OTHER LOCATIONS IN NEW MEXICO...

CITY           SKY/WX    TMP DP  RH WIND       PRES   REMARKS
ALAMOGORDO     SUNNY     55  23  28 S15       30.10F
ALBUQUERQUE    SUNNY     37  18  46 N5        30.06F WCI  33
CANNON AFB     SUNNY     54  21  27 S15       30.06F
CLOVIS         NOT AVBL
HOLLOMAN AFB   SUNNY     56  21  25 S13       30.11F
ROSWELL        SUNNY     46  29  51 CALM      30.06F
RUIDOSO        SUNNY     48   3  15 SW23G33   30.08
SANTA FE       SUNNY     35  18  49 N10       30.04F WCI  27
TRUTH OR CONSE SUNNY     52  18  26 S18G26    30.05F
TUCUMCARI      SUNNY     55  18  23 W14       30.02F
$$



USA.gov is the U.S. government's official web portal to all federal, state and local government web resources and services.